Tracking 23610 objects as of 19-Sep-2021
HD Live streaming from Space Station
objects crossing your sky now

DMSP 5D-2 F13 DEB

Track DMSP 5D-2 F13 DEB now!
10-day predictions


NORAD ID: 40504
Int'l Code: 1995-015CT
Perigee: 837.3 km
Apogee: 920.5 km
Inclination: 98.9 °
Period: 102.4 minutes
Semi major axis: 7249 km
RCS: Unknown
Launch date: March 24, 1995
Source: United States (US)
Launch site: AIR FORCE WESTERN TEST RANGE (AFWTR)

Note: This is SATELLITE DEBRIS
aabbcc
Your satellite tracking list
Your tracking list is empty




NASA's NSSDC Master Catalog

Two Line Element Set (TLE):
1 40504U 95015CT  21261.42026469  .00000736  00000-0  46578-3 0  9997
2 40504  98.9297 236.4979 0057403 328.5951  31.1794 14.06379612334397
Source of the keplerian elements: AFSPC